When you browse on this site, cookies collect data to enhance your experience and personalize the content and advertising you see.
Visit our Privacy Policy to learn more. By continuing to use the site, you agree to this use of cookies and data.
  • In Czech Republic
  • List of Countries
  • For 7 days
  • Water Temperature
  • Satellite Maps
  • Weather Map
  • Weather Widgets
  • user-avatar
    Login

    Hourly Weather Belmopan

    Today, 25 May, Saturday

    Time Temperature Precipitation Wind Pressure Humidity
    00:00 +25°C° 0 mm 1 mps 752 mmHg 97%
    01:00 +23°C° 0 mm 0 mps 752 mmHg 98%
    02:00 +23°C° 0 mm 0 mps 752 mmHg 98%
    03:00 +23°C° 0 mm 0 mps 751 mmHg 98%
    04:00 +23°C° 0 mm 0 mps 752 mmHg 98%
    05:00 +23°C° 0 mm 0 mps 752 mmHg 97%
    06:00 +23°C° 0 mm 0 mps 752 mmHg 96%
    07:00 +27°C° 0 mm 1 mps 752 mmHg 85%
    08:00 +29°C° 0 mm 1 mps 753 mmHg 74%
    09:00 +31°C° 0 mm 1 mps 753 mmHg 63%
    10:00 +32°C° 0.4 mm 2 mps 753 mmHg 62%
    11:00 +34°C° 0.4 mm 2 mps 752 mmHg 60%
    12:00 +35°C° 0.4 mm 2 mps 752 mmHg 59%
    13:00 +35°C° 0.3 mm 2 mps 751 mmHg 58%
    14:00 +35°C° 0.3 mm 2 mps 751 mmHg 57%
    15:00 +35°C° 0.3 mm 3 mps 751 mmHg 56%
    16:00 +32°C° 0.1 mm 2 mps 751 mmHg 62%
    17:00 +31°C° 0.1 mm 2 mps 751 mmHg 67%
    18:00 +29°C° 0.1 mm 2 mps 751 mmHg 72%
    19:00 +28°C° 0 mm 2 mps 751 mmHg 80%
    20:00 +27°C° 0 mm 1 mps 752 mmHg 87%
    21:00 +25°C° 0 mm 1 mps 752 mmHg 94%
    22:00 +25°C° 0 mm 1 mps 752 mmHg 95%
    23:00 +23°C° 0 mm 0 mps 753 mmHg 97%

    Tomorrow, 26 May, Sunday

    Time Temperature Precipitation Wind Pressure Humidity
    00:00 +23°C° 0 mm 0 mps 753 mmHg 98%
    01:00 +23°C° 0 mm 0 mps 752 mmHg 98%
    02:00 +22°C° 0 mm 0 mps 752 mmHg 98%
    03:00 +22°C° 0 mm 0 mps 752 mmHg 98%
    04:00 +23°C° 0 mm 0 mps 752 mmHg 97%
    05:00 +23°C° 0 mm 0 mps 752 mmHg 96%
    06:00 +23°C° 0 mm 0 mps 752 mmHg 95%
    07:00 +25°C° 0 mm 0 mps 752 mmHg 83%
    08:00 +30°C° 0 mm 1 mps 753 mmHg 70%
    09:00 +32°C° 0 mm 1 mps 753 mmHg 57%
    10:00 +34°C° 0.4 mm 2 mps 753 mmHg 57%
    11:00 +34°C° 0.4 mm 2 mps 752 mmHg 57%
    12:00 +35°C° 0.4 mm 2 mps 752 mmHg 58%
    13:00 +35°C° 0.4 mm 2 mps 752 mmHg 56%
    14:00 +35°C° 0.4 mm 2 mps 751 mmHg 55%
    15:00 +35°C° 0.4 mm 2 mps 751 mmHg 54%
    16:00 +34°C° 0.1 mm 2 mps 751 mmHg 58%
    17:00 +31°C° 0.1 mm 2 mps 751 mmHg 62%
    18:00 +30°C° 0.1 mm 2 mps 750 mmHg 66%
    19:00 +29°C° 0 mm 2 mps 751 mmHg 75%
    20:00 +27°C° 0 mm 1 mps 752 mmHg 83%
    21:00 +26°C° 0 mm 1 mps 752 mmHg 91%
    22:00 +25°C° 0 mm 1 mps 752 mmHg 93%
    23:00 +25°C° 0 mm 1 mps 752 mmHg 95%

    Day after tomorrow, 27 May, Monday

    Time Temperature Precipitation Wind Pressure Humidity
    00:00 +23°C° 0 mm 0 mps 752 mmHg 97%
    01:00 +23°C° 0 mm 0 mps 752 mmHg 98%
    02:00 +23°C° 0 mm 0 mps 751 mmHg 98%
    03:00 +23°C° 0 mm 0 mps 751 mmHg 98%
    04:00 +23°C° 0 mm 0 mps 751 mmHg 97%
    05:00 +23°C° 0 mm 0 mps 751 mmHg 96%
    06:00 +23°C° 0 mm 0 mps 751 mmHg 95%
    07:00 +25°C° 0.1 mm 0 mps 751 mmHg 85%
    08:00 +29°C° 0.1 mm 1 mps 752 mmHg 74%
    09:00 +32°C° 0.1 mm 1 mps 752 mmHg 64%
    10:00 +32°C° 1.1 mm 1 mps 752 mmHg 66%
    11:00 +32°C° 1.1 mm 2 mps 752 mmHg 67%
    12:00 +32°C° 1.1 mm 2 mps 751 mmHg 69%
    13:00 +32°C° 1.2 mm 2 mps 750 mmHg 69%
    14:00 +32°C° 1.2 mm 2 mps 750 mmHg 69%
    15:00 +31°C° 1.2 mm 2 mps 749 mmHg 70%
    16:00 +31°C° 0 mm 2 mps 749 mmHg 71%
    17:00 +30°C° 0 mm 2 mps 749 mmHg 72%
    18:00 +30°C° 0 mm 2 mps 749 mmHg 73%
    19:00 +28°C° 0 mm 1 mps 750 mmHg 80%
    20:00 +27°C° 0 mm 1 mps 750 mmHg 87%
    21:00 +26°C° 0 mm 1 mps 751 mmHg 94%
    22:00 +26°C° 0 mm 1 mps 751 mmHg 95%
    23:00 +23°C° 0 mm 0 mps 751 mmHg 96%

    28 May, Tuesday

    Time Temperature Precipitation Wind Pressure Humidity
    00:00 +23°C° 0 mm 0 mps 751 mmHg 98%
    01:00 +23°C° 0 mm 0 mps 750 mmHg 98%
    02:00 +23°C° 0 mm 0 mps 750 mmHg 98%
    03:00 +22°C° 0 mm 0 mps 749 mmHg 98%
    04:00 +23°C° 0 mm 0 mps 749 mmHg 98%
    05:00 +23°C° 0 mm 0 mps 749 mmHg 97%
    06:00 +23°C° 0 mm 0 mps 749 mmHg 96%
    07:00 +25°C° 0 mm 0 mps 750 mmHg 85%
    08:00 +30°C° 0 mm 1 mps 750 mmHg 73%
    09:00 +32°C° 0 mm 1 mps 750 mmHg 62%
    10:00 +33°C° 0.3 mm 1 mps 750 mmHg 60%
    11:00 +35°C° 0.3 mm 2 mps 749 mmHg 58%
    12:00 +35°C° 0.3 mm 2 mps 749 mmHg 56%
    13:00 +35°C° 0.3 mm 2 mps 748 mmHg 56%
    14:00 +35°C° 0.3 mm 2 mps 747 mmHg 55%
    15:00 +35°C° 0.3 mm 2 mps 747 mmHg 54%
    16:00 +34°C° 0.1 mm 2 mps 747 mmHg 60%
    17:00 +32°C° 0.1 mm 2 mps 747 mmHg 65%
    18:00 +30°C° 0.1 mm 2 mps 748 mmHg 70%
    19:00 +29°C° 0 mm 2 mps 748 mmHg 78%
    20:00 +27°C° 0 mm 1 mps 749 mmHg 86%
    21:00 +26°C° 0 mm 1 mps 749 mmHg 93%
    22:00 +26°C° 0 mm 1 mps 749 mmHg 95%
    23:00 +23°C° 0 mm 0 mps 749 mmHg 96%

    29 May, Wednesday

    Time Temperature Precipitation Wind Pressure Humidity
    00:00 +23°C° 0 mm 0 mps 749 mmHg 98%
    01:00 +23°C° 0 mm 0 mps 748 mmHg 98%
    02:00 +23°C° 0 mm 0 mps 748 mmHg 98%
    03:00 +23°C° 0 mm 0 mps 747 mmHg 99%
    04:00 +23°C° 0 mm 0 mps 747 mmHg 97%
    05:00 +23°C° 0 mm 0 mps 748 mmHg 96%
    06:00 +23°C° 0 mm 0 mps 748 mmHg 95%
    07:00 +28°C° 0 mm 1 mps 748 mmHg 82%
    08:00 +31°C° 0 mm 1 mps 749 mmHg 70%
    09:00 +33°C° 0 mm 1 mps 749 mmHg 57%
    10:00 +35°C° 0 mm 1 mps 748 mmHg 52%
    11:00 +37°C° 0 mm 2 mps 748 mmHg 48%
    12:00 +38°C° 0 mm 2 mps 747 mmHg 44%
    13:00 +38°C° 0 mm 2 mps 747 mmHg 45%
    14:00 +38°C° 0 mm 2 mps 746 mmHg 46%
    15:00 +38°C° 0 mm 3 mps 745 mmHg 47%
    16:00 +36°C° 0 mm 2 mps 745 mmHg 53%
    17:00 +34°C° 0 mm 2 mps 746 mmHg 60%
    18:00 +31°C° 0 mm 2 mps 746 mmHg 66%
    19:00 +30°C° 0 mm 2 mps 746 mmHg 74%
    20:00 +28°C° 0 mm 2 mps 747 mmHg 82%
    21:00 +27°C° 0 mm 1 mps 748 mmHg 90%
    22:00 +27°C° 0 mm 1 mps 748 mmHg 92%
    23:00 +26°C° 0 mm 1 mps 748 mmHg 95%

    30 May, Thursday

    Time Temperature Precipitation Wind Pressure Humidity
    00:00 +26°C° 0 mm 1 mps 747 mmHg 97%
    01:00 +26°C° 0 mm 1 mps 747 mmHg 98%
    02:00 +24°C° 0 mm 0 mps 747 mmHg 98%
    03:00 +24°C° 0 mm 0 mps 747 mmHg 98%
    04:00 +24°C° 0 mm 0 mps 747 mmHg 97%
    05:00 +24°C° 0 mm 0 mps 747 mmHg 96%
    06:00 +24°C° 0 mm 0 mps 748 mmHg 95%
    07:00 +27°C° 0 mm 0 mps 748 mmHg 81%
    08:00 +30°C° 0 mm 0 mps 748 mmHg 67%
    09:00 +33°C° 0 mm 0 mps 749 mmHg 52%
    10:00 +36°C° 0 mm 1 mps 748 mmHg 47%
    11:00 +39°C° 0 mm 1 mps 748 mmHg 42%
    12:00 +40°C° 0 mm 1 mps 747 mmHg 37%
    13:00 +39°C° 0.4 mm 2 mps 747 mmHg 42%
    14:00 +38°C° 0.4 mm 2 mps 746 mmHg 46%
    15:00 +37°C° 0.4 mm 2 mps 746 mmHg 51%
    16:00 +35°C° 0.6 mm 2 mps 746 mmHg 57%
    17:00 +34°C° 0.6 mm 2 mps 746 mmHg 62%
    18:00 +32°C° 0.6 mm 2 mps 746 mmHg 68%
    19:00 +30°C° 0.6 mm 2 mps 747 mmHg 74%
    20:00 +29°C° 0.6 mm 2 mps 747 mmHg 81%
    21:00 +28°C° 0.6 mm 1 mps 748 mmHg 88%
    22:00 +28°C° 0.7 mm 1 mps 748 mmHg 90%
    23:00 +27°C° 0.7 mm 1 mps 748 mmHg 92%
    Show more